FW1312 Weather Reports


Display with metric or nautical units.
time (UTC)temp
F
wind
direction
speed
MPH
gust
MPH
rain 1hr
in
rain 24hr
in
rain mn
in
humidity
%
barometer
mb
20260506024532 78 161 5.0 10.0 0.00 0.00 0.00 80 1006.3
20260506023014 78 147 3.0 12.0 0.00 0.00 0.00 79 1006.2
20260506021558 78 181 3.0 9.0 0.00 0.00 0.00 79 1006.1
20260506020059 78 156 3.0 7.0 0.00 0.00 0.00 79 1006.2
20260506014547 78 159 3.0 8.0 0.00 0.00 0.00 79 1006.0
20260506013043 79 155 2.0 11.0 0.00 0.00 0.00 78 1005.8
20260506011523 79 186 4.0 9.0 0.00 0.00 0.00 78 1005.5
20260506010024 79 140 4.0 12.0 0.00 0.00 0.00 78 1005.2
20260506004603 80 152 7.0 14.0 0.00 0.00 0.00 78 1004.8
20260506003132 80 186 7.0 19.0 0.00 0.00 0.00 78 1004.6
20260506001555 81 202 6.0 17.0 0.00 0.00 0.00 78 1004.6
20260506000027 81 150 5.0 13.0 0.00 0.00 0.00 78 1004.6
20260505234534 82 224 7.0 17.0 0.00 0.00 0.00 78 1004.4
20260505233005 83 181 6.0 15.0 0.00 0.00 0.00 79 1004.2
20260505231548 83 182 8.0 15.0 0.00 0.00 0.00 79 1004.2
20260505230037 83 210 6.0 16.0 0.00 0.00 0.00 79 1004.3
20260505224532 84 197 8.0 15.0 0.00 0.00 0.00 80 1004.3
20260505223001 84 184 6.0 18.0 0.00 0.00 0.00 80 1004.4
20260505221550 84 178 4.0 17.0 0.00 0.00 0.00 80 1004.5
20260505220017 84 213 8.0 21.0 0.00 0.00 0.00 81 1004.5
20260505214635 84 197 7.0 15.0 0.00 0.00 0.00 81 1004.7
20260505213039 84 158 8.0 16.0 0.00 0.00 0.00 82 1004.8
20260505211539 84 189 7.0 14.0 0.00 0.00 0.00 82 1005.0
20260505210034 84 248 7.0 18.0 0.00 0.00 0.00 83 1005.2
20260505204517 84 248 8.0 19.0 0.00 0.00 0.00 83 1005.7
20260505203047 83 221 8.0 19.0 0.00 0.00 0.00 84 1006.0
20260505201500 84 250 12.0 20.0 0.00 0.00 0.00 84 1006.0
20260505200019 83 223 11.0 22.0 0.00 0.00 0.00 85 1006.3
20260505194521 82 222 9.0 24.0 0.00 0.00 0.00 85 1006.5
20260505193031 82 193 14.0 25.0 0.00 0.00 0.00 85 1006.6
20260505191606 82 196 11.0 27.0 0.00 0.00 0.00 86 1006.7
20260505190106 81 188 8.0 18.0 0.00 0.00 0.00 86 1006.9
20260505184605 81 186 5.0 23.0 0.00 0.00 0.00 86 1007.0
20260505183110 80 248 6.0 21.0 0.00 0.00 0.00 86 1007.0
20260505181544 79 239 6.0 19.0 0.00 0.00 0.00 86 1007.1
20260505180001 78 218 8.0 22.0 0.00 0.00 0.00 86 1007.1
20260505174607 78 183 5.0 22.0 0.00 0.00 0.00 86 1007.2
20260505173052 77 239 8.0 18.0 0.00 0.00 0.00 86 1007.5
20260505171519 76 180 4.0 16.0 0.00 0.00 0.00 86 1007.6
20260505170104 76 226 5.0 15.0 0.00 0.00 0.00 86 1007.8
20260505164552 76 130 5.0 17.0 0.00 0.00 0.00 86 1007.7
20260505163026 75 236 7.0 20.0 0.00 0.00 0.00 86 1007.8
20260505161508 75 205 8.0 17.0 0.00 0.00 0.00 85 1007.7
20260505153036 73 208 6.0 15.0 0.00 0.00 0.00 85 1008.1
20260505151539 73 232 7.0 20.0 0.00 0.00 0.00 85 1008.0
20260505124542 71 186 5.0 12.0 0.00 0.00 0.00 83 1007.1
20260505123104 71 195 6.0 15.0 0.00 0.00 0.00 83 1007.1
20260505121538 70 225 5.0 12.0 0.00 0.00 0.00 83 1007.1
20260505120058 70 230 5.0 12.0 0.00 0.00 0.00 82 1006.9
20260505114516 70 190 6.0 13.0 0.00 0.00 0.00 82 1006.4
20260505113042 70 213 8.0 20.0 0.00 0.00 0.00 82 1006.8
20260505111540 70 205 7.0 16.0 0.00 0.00 0.00 82 1006.5
20260505031530 73 175 3.0 9.0 0.00 0.00 0.00 71 1008.7
20260505030051 73 182 4.0 10.0 0.00 0.00 0.00 71 1008.5